Regional Weather Roundup
Issued by NWS

Home | Current Version | Previous Version | Graphics & Text | Print | Product List | Glossary Off
Versions: 1 2 3 4 5 6 7 8 9 10 11 12 13 14 15 16 17 18 19 20 21 22 23 24 25 26 27 28 29 30 31 32 33 34 35 36 37 38 39 40 41 42 43 44 45 46 47 48 49 50

000
ASUS43 KTOP 222308
RWRKS

WEATHER ROUNDUP FOR KANSAS
NATIONAL WEATHER SERVICE GOODLAND KS
500 PM CST WED FEB 22 2017

NOTE:  "FAIR" INDICATES FEW OR NO CLOUDS BELOW 12,000 FEET WITH NO
SIGNIFICANT WEATHER AND/OR OBSTRUCTIONS TO VISIBILITY.

KSZ001>006-013>018-027>032-041>047-230000-
NORTHWEST KANSAS

CITY           SKY/WX    TMP DP  RH WIND       PRES   REMARKS
GOODLAND       SUNNY     63  20  19 E5        29.74F
HAYS             N/A     72  30  21 NW5       29.71F
HILL CITY      MOSUNNY   72  23  16 N8        29.72F
RUSSELL        CLOUDY    72  30  21 NW5       29.69F
$$

KSZ061>065-074>080-084>089-230000-
SOUTHWEST KANSAS

CITY           SKY/WX    TMP DP  RH WIND       PRES   REMARKS
DODGE CITY     SUNNY     75  24  15 N5        29.71F
ELKHART          N/A     73  23  15 S7          N/A
GARDEN CITY    SUNNY     72  19  13 NW5       29.72F
GREAT BEND     MOSUNNY   74  34  23 N12       29.70
LIBERAL        SUNNY     75  25  15 SE7       29.73S
PRATT          SUNNY     69  29  23 N8        29.70S
$$

KSZ066>073-081>083-090>101-230000-
SOUTHEAST KANSAS

CITY           SKY/WX    TMP DP  RH WIND       PRES   REMARKS
CHANUTE        SUNNY     80  33  18 SW10      29.67R
COFFEYVILLE    SUNNY     77  43  29 S10       29.67S
HUTCHINSON     SUNNY     76  27  16 W9        29.67S
MEDICINE LODGE   N/A     81  24  12 N9        29.67S
NEWTON         SUNNY     76  46  34 SW9       29.68S
PARSONS        SUNNY     78  38  23 S12       29.68S
WICHITA INTL   MOSUNNY   75  45  34 S8        29.67S
WICHITA JABRA  SUNNY     75  44  33 SW7       29.67S
WICHITA MCCONL SUNNY     76  43  31 SW8       29.67S
WINFIELD       SUNNY     71  46  40 S9        29.69S
$$

KSZ007>012-019>026-033>040-048>060-102>105-230000-
NORTHEAST KANSAS

CITY           SKY/WX    TMP DP  RH WIND       PRES   REMARKS
CONCORDIA      CLOUDY    72  31  22 NW10      29.67S
EMPORIA        CLOUDY    74  37  26 W6        29.66R
LAWRENCE       CLOUDY    75  37  25 W8        29.63R
MANHATTAN      PTSUNNY   75  34  22 W3        29.64S
MARYSVILLE     CLOUDY    72  34  25 NW9       29.65S
OLATHE IND     MOSUNNY   76  34  21 W8        29.64R
OLATHE EXE     SUNNY     75  37  25 S6        29.63S
SALINA         CLOUDY    75  34  22 W7        29.67F
TOPEKA BILLARD CLOUDY    73  38  27 W6        29.64R
TOPEKA FORBES  PTSUNNY   73  40  30 W8        29.65R
$$




USA.gov is the U.S. government's official web portal to all federal, state and local government web resources and services.